Time,TemperatureF,DewpointF,PressureIn,WindDirection,WindDirectionDegrees,WindSpeedMPH,WindSpeedGustMPH,Humidity,HourlyPrecipIn,Conditions,Clouds,dailyrainin,SoftwareType,DateUTC
2013-03-06 00:00:00,27.3,26.3,29.89,North,360,4.0,4.0,96,0.00,,,0.01,VWS V14.01,2013-03-06 05:00:00,
2013-03-06 00:05:00,27.2,26.2,29.90,North,360,1.0,4.0,96,0.00,,,0.00,VWS V14.01,2013-03-06 05:05:00,
2013-03-06 00:10:00,27.1,26.1,29.90,North,360,1.0,5.0,96,0.00,,,0.00,VWS V14.01,2013-03-06 05:10:00,
2013-03-06 00:15:00,27.0,26.0,29.90,NNE,19,1.0,5.0,96,0.00,,,0.00,VWS V14.01,2013-03-06 05:15:00,
2013-03-06 00:20:00,27.0,26.0,29.90,North,360,0.0,4.0,96,0.00,,,0.00,VWS V14.01,2013-03-06 05:20:00,
2013-03-06 00:25:00,27.0,26.0,29.90,NNE,17,4.0,5.0,96,0.00,,,0.00,VWS V14.01,2013-03-06 05:25:00,
2013-03-06 00:30:00,26.9,25.9,29.91,North,355,3.0,6.0,96,0.00,,,0.00,VWS V14.01,2013-03-06 05:30:00,
2013-03-06 00:35:00,26.9,25.9,29.91,North,360,1.0,6.0,96,0.00,,,0.00,VWS V14.01,2013-03-06 05:35:00,
2013-03-06 00:40:00,26.8,25.8,29.91,NNE,14,0.0,4.0,96,0.00,,,0.00,VWS V14.01,2013-03-06 05:40:00,
2013-03-06 00:45:00,26.8,25.8,29.91,NNE,18,4.0,6.0,96,0.00,,,0.00,VWS V14.01,2013-03-06 05:45:00,
2013-03-06 00:50:00,26.8,25.8,29.91,North,360,0.0,6.0,96,0.00,,,0.00,VWS V14.01,2013-03-06 05:50:00,
2013-03-06 00:55:00,26.8,25.8,29.92,NNE,31,1.0,6.0,96,0.00,,,0.00,VWS V14.01,2013-03-06 05:55:00,
2013-03-06 00:59:00,26.7,25.7,29.92,NNE,14,1.0,4.0,96,0.00,,,0.00,VWS V14.01,2013-03-06 05:59:00,
2013-03-06 01:04:00,26.7,25.7,29.92,NNW,340,0.0,4.0,96,0.00,,,0.00,VWS V14.01,2013-03-06 06:04:00,
2013-03-06 01:09:00,26.7,25.7,29.92,NNE,17,1.0,4.0,96,0.00,,,0.00,VWS V14.01,2013-03-06 06:09:00,
2013-03-06 01:14:00,26.7,25.7,29.92,North,9,1.0,4.0,96,0.00,,,0.00,VWS V14.01,2013-03-06 06:14:00,
2013-03-06 01:19:00,26.7,25.7,29.93,North,355,1.0,4.0,96,0.00,,,0.00,VWS V14.01,2013-03-06 06:19:00,
2013-03-06 01:24:00,26.7,25.7,29.93,NE,34,1.0,3.0,96,0.00,,,0.00,VWS V14.01,2013-03-06 06:24:00,
2013-03-06 01:29:00,26.6,25.6,29.93,North,360,0.0,3.0,96,0.00,,,0.00,VWS V14.01,2013-03-06 06:29:00,
2013-03-06 01:34:00,26.6,25.6,29.93,North,5,2.0,5.0,96,0.00,,,0.00,VWS V14.01,2013-03-06 06:34:00,
2013-03-06 01:39:00,26.6,25.6,29.93,North,5,0.0,5.0,96,0.00,,,0.00,VWS V14.01,2013-03-06 06:39:00,
2013-03-06 01:44:00,26.6,25.6,29.94,North,355,2.0,5.0,96,0.00,,,0.00,VWS V14.01,2013-03-06 06:44:00,
2013-03-06 01:49:00,26.6,25.6,29.94,NNE,28,1.0,4.0,96,0.00,,,0.00,VWS V14.01,2013-03-06 06:49:00,
2013-03-06 01:54:00,26.6,25.6,29.94,NNE,32,2.0,6.0,96,0.00,,,0.00,VWS V14.01,2013-03-06 06:54:00,
2013-03-06 01:59:00,26.6,25.6,29.94,NE,35,1.0,6.0,96,0.00,,,0.00,VWS V14.01,2013-03-06 06:59:00,
2013-03-06 02:04:00,26.6,25.6,29.94,NNE,19,1.0,6.0,96,0.00,,,0.00,VWS V14.01,2013-03-06 07:04:00,
2013-03-06 02:09:00,26.6,25.6,29.95,North,355,2.0,4.0,96,0.00,,,0.00,VWS V14.01,2013-03-06 07:09:00,
2013-03-06 02:14:00,26.6,25.6,29.95,NW,325,2.0,4.0,96,0.00,,,0.00,VWS V14.01,2013-03-06 07:14:00,
2013-03-06 02:19:00,26.7,25.5,29.95,North,360,2.0,4.0,95,0.00,,,0.00,VWS V14.01,2013-03-06 07:19:00,
2013-03-06 02:24:00,26.7,25.5,29.95,NNW,340,1.0,4.0,95,0.00,,,0.00,VWS V14.01,2013-03-06 07:24:00,
2013-03-06 02:29:00,26.7,25.5,29.95,North,355,2.0,3.0,95,0.00,,,0.00,VWS V14.01,2013-03-06 07:29:00,
2013-03-06 02:34:00,26.7,25.5,29.95,North,5,0.0,3.0,95,0.00,,,0.00,VWS V14.01,2013-03-06 07:34:00,
2013-03-06 02:39:00,26.7,25.5,29.95,North,11,2.0,3.0,95,0.00,,,0.00,VWS V14.01,2013-03-06 07:39:00,
2013-03-06 02:44:00,26.7,25.5,29.95,North,10,0.0,4.0,95,0.00,,,0.00,VWS V14.01,2013-03-06 07:44:00,
2013-03-06 02:49:00,26.8,25.6,29.95,North,355,2.0,4.0,95,0.00,,,0.00,VWS V14.01,2013-03-06 07:49:00,
2013-03-06 02:54:00,26.8,25.6,29.95,North,5,1.0,3.0,95,0.00,,,0.00,VWS V14.01,2013-03-06 07:54:00,
2013-03-06 02:59:00,26.8,25.6,29.95,North,360,0.0,2.0,95,0.00,,,0.00,VWS V14.01,2013-03-06 07:59:00,
2013-03-06 03:04:00,26.8,25.6,29.95,North,360,1.0,3.0,95,0.00,,,0.00,VWS V14.01,2013-03-06 08:04:00,
2013-03-06 03:09:00,26.8,25.6,29.95,NNW,343,4.0,5.0,95,0.00,,,0.00,VWS V14.01,2013-03-06 08:09:00,
2013-03-06 03:14:00,26.8,25.3,29.96,North,355,3.0,5.0,94,0.00,,,0.00,VWS V14.01,2013-03-06 08:14:00,
2013-03-06 03:19:00,26.9,25.4,29.96,North,355,1.0,4.0,94,0.00,,,0.00,VWS V14.01,2013-03-06 08:19:00,
2013-03-06 03:24:00,26.9,25.4,29.97,NNW,328,1.0,4.0,94,0.00,,,0.00,VWS V14.01,2013-03-06 08:24:00,
2013-03-06 03:29:00,27.0,25.5,29.97,North,355,2.0,4.0,94,0.00,,,0.00,VWS V14.01,2013-03-06 08:29:00,
2013-03-06 03:34:00,27.0,25.5,29.97,NW,317,0.0,4.0,94,0.00,,,0.00,VWS V14.01,2013-03-06 08:34:00,
2013-03-06 03:39:00,27.0,25.5,29.97,NNW,347,0.0,4.0,94,0.00,,,0.00,VWS V14.01,2013-03-06 08:39:00,
2013-03-06 03:44:00,27.0,25.5,29.97,North,355,3.0,4.0,94,0.00,,,0.00,VWS V14.01,2013-03-06 08:44:00,
2013-03-06 03:49:00,27.1,25.6,29.97,North,5,1.0,5.0,94,0.00,,,0.00,VWS V14.01,2013-03-06 08:49:00,
2013-03-06 03:54:00,27.1,25.4,29.97,North,351,2.0,5.0,93,0.00,,,0.00,VWS V14.01,2013-03-06 08:54:00,
2013-03-06 03:59:00,27.1,25.6,29.97,North,5,1.0,5.0,94,0.00,,,0.00,VWS V14.01,2013-03-06 08:59:00,
2013-03-06 04:04:00,27.1,25.4,29.97,NNW,337,5.0,5.0,93,0.00,,,0.00,VWS V14.01,2013-03-06 09:04:00,
2013-03-06 04:09:00,27.2,25.5,29.97,NNW,335,1.0,5.0,93,0.00,,,0.00,VWS V14.01,2013-03-06 09:09:00,
2013-03-06 04:14:00,27.2,25.5,29.97,NNW,347,1.0,5.0,93,0.00,,,0.00,VWS V14.01,2013-03-06 09:14:00,
2013-03-06 04:19:00,27.2,25.5,29.97,North,350,2.0,5.0,93,0.00,,,0.00,VWS V14.01,2013-03-06 09:19:00,
2013-03-06 04:24:00,27.3,25.5,29.98,North,5,1.0,5.0,93,0.00,,,0.00,VWS V14.01,2013-03-06 09:24:00,
2013-03-06 04:29:00,27.3,25.5,29.98,North,355,3.0,5.0,93,0.00,,,0.00,VWS V14.01,2013-03-06 09:29:00,
2013-03-06 04:34:00,27.3,25.5,29.98,North,350,2.0,4.0,93,0.00,,,0.00,VWS V14.01,2013-03-06 09:34:00,
2013-03-06 04:39:00,27.3,25.5,29.99,North,349,1.0,4.0,93,0.00,,,0.00,VWS V14.01,2013-03-06 09:39:00,
2013-03-06 04:44:00,27.4,25.6,29.98,NW,325,1.0,4.0,93,0.00,,,0.00,VWS V14.01,2013-03-06 09:44:00,
2013-03-06 04:49:00,27.4,25.6,29.99,NW,323,1.0,4.0,93,0.00,,,0.00,VWS V14.01,2013-03-06 09:49:00,
2013-03-06 04:54:00,27.4,25.6,29.99,NNE,13,3.0,5.0,93,0.00,,,0.00,VWS V14.01,2013-03-06 09:54:00,
2013-03-06 04:59:00,27.4,25.4,29.99,NNW,346,2.0,5.0,92,0.00,,,0.00,VWS V14.01,2013-03-06 09:59:00,
2013-03-06 05:04:00,27.5,25.5,30.00,NNW,329,0.0,5.0,92,0.00,,,0.00,VWS V14.01,2013-03-06 10:04:00,
2013-03-06 05:09:00,27.5,25.5,30.00,NW,321,2.0,4.0,92,0.00,,,0.00,VWS V14.01,2013-03-06 10:09:00,
2013-03-06 05:14:00,27.5,25.5,30.01,NNW,338,3.0,3.0,92,0.00,,,0.00,VWS V14.01,2013-03-06 10:14:00,
2013-03-06 05:19:00,27.6,25.6,30.01,NNW,342,2.0,4.0,92,0.00,,,0.00,VWS V14.01,2013-03-06 10:19:00,
2013-03-06 05:24:00,27.6,25.6,30.01,West,281,1.0,4.0,92,0.00,,,0.00,VWS V14.01,2013-03-06 10:24:00,
2013-03-06 05:29:00,27.7,25.7,30.01,North,355,3.0,5.0,92,0.00,,,0.00,VWS V14.01,2013-03-06 10:29:00,
2013-03-06 05:34:00,27.8,25.8,30.02,NNW,333,2.0,5.0,92,0.00,,,0.00,VWS V14.01,2013-03-06 10:34:00,
2013-03-06 05:39:00,27.8,25.8,30.02,North,5,3.0,4.0,92,0.00,,,0.00,VWS V14.01,2013-03-06 10:39:00,
2013-03-06 05:44:00,27.9,25.9,30.03,North,9,4.0,5.0,92,0.00,,,0.00,VWS V14.01,2013-03-06 10:44:00,
2013-03-06 05:49:00,27.9,25.9,30.03,NNW,337,0.0,5.0,92,0.00,,,0.00,VWS V14.01,2013-03-06 10:49:00,
2013-03-06 05:54:00,27.9,25.9,30.03,NNW,341,0.0,5.0,92,0.00,,,0.00,VWS V14.01,2013-03-06 10:54:00,
2013-03-06 05:59:00,28.0,26.0,30.03,North,355,0.0,6.0,92,0.00,,,0.00,VWS V14.01,2013-03-06 10:59:00,
2013-03-06 06:04:00,28.0,26.0,30.04,North,355,1.0,6.0,92,0.00,,,0.00,VWS V14.01,2013-03-06 11:04:00,
2013-03-06 06:09:00,28.1,26.1,30.05,North,355,5.0,6.0,92,0.00,,,0.00,VWS V14.01,2013-03-06 11:09:00,
2013-03-06 06:14:00,28.1,26.1,30.05,NNW,348,1.0,6.0,92,0.00,,,0.00,VWS V14.01,2013-03-06 11:14:00,
2013-03-06 06:19:00,28.2,26.2,30.05,North,5,2.0,6.0,92,0.00,,,0.00,VWS V14.01,2013-03-06 11:19:00,
2013-03-06 06:24:00,28.2,26.2,30.05,North,355,1.0,4.0,92,0.00,,,0.00,VWS V14.01,2013-03-06 11:24:00,
2013-03-06 06:29:00,28.3,26.3,30.06,North,360,2.0,5.0,92,0.00,,,0.00,VWS V14.01,2013-03-06 11:29:00,
2013-03-06 06:34:00,28.3,26.3,30.06,WNW,300,6.0,6.0,92,0.00,,,0.00,VWS V14.01,2013-03-06 11:34:00,
2013-03-06 06:39:00,28.3,26.3,30.07,NNW,342,3.0,6.0,92,0.00,,,0.00,VWS V14.01,2013-03-06 11:39:00,
2013-03-06 06:44:00,28.4,26.4,30.07,North,355,2.0,6.0,92,0.00,,,0.00,VWS V14.01,2013-03-06 11:44:00,
2013-03-06 06:49:00,28.4,26.4,30.07,North,360,0.0,7.0,92,0.00,,,0.00,VWS V14.01,2013-03-06 11:49:00,
2013-03-06 06:54:00,28.5,26.5,30.07,NNW,337,2.0,7.0,92,0.00,,,0.00,VWS V14.01,2013-03-06 11:54:00,
2013-03-06 06:59:00,28.5,26.5,30.08,NNW,328,4.0,6.0,92,0.00,,,0.00,VWS V14.01,2013-03-06 11:59:00,
2013-03-06 07:04:00,28.6,26.6,30.08,North,355,3.0,4.0,92,0.00,,,0.00,VWS V14.01,2013-03-06 12:04:00,
2013-03-06 07:09:00,28.6,26.6,30.08,North,355,2.0,8.0,92,0.00,,,0.00,VWS V14.01,2013-03-06 12:09:00,
2013-03-06 07:14:00,28.7,26.7,30.08,North,5,2.0,8.0,92,0.00,,,0.00,VWS V14.01,2013-03-06 12:14:00,
2013-03-06 07:19:00,28.7,26.7,30.08,North,5,2.0,8.0,92,0.00,,,0.00,VWS V14.01,2013-03-06 12:19:00,
2013-03-06 07:24:00,28.7,26.7,30.08,WNW,301,0.0,4.0,92,0.00,,,0.00,VWS V14.01,2013-03-06 12:24:00,
2013-03-06 07:29:00,28.8,26.8,30.09,NNW,348,2.0,6.0,92,0.00,,,0.00,VWS V14.01,2013-03-06 12:29:00,
2013-03-06 07:34:00,28.8,26.8,30.09,NNE,17,5.0,6.0,92,0.00,,,0.00,VWS V14.01,2013-03-06 12:34:00,
2013-03-06 07:39:00,28.9,26.9,30.09,North,5,2.0,6.0,92,0.00,,,0.00,VWS V14.01,2013-03-06 12:39:00,
2013-03-06 07:44:00,28.9,26.9,30.10,NNE,13,3.0,6.0,92,0.00,,,0.00,VWS V14.01,2013-03-06 12:44:00,
2013-03-06 07:49:00,29.0,27.0,30.10,North,355,3.0,6.0,92,0.00,,,0.00,VWS V14.01,2013-03-06 12:49:00,
2013-03-06 07:54:00,29.1,27.1,30.10,North,360,2.0,6.0,92,0.00,,,0.00,VWS V14.01,2013-03-06 12:54:00,
2013-03-06 07:59:00,29.1,27.1,30.10,NNW,340,2.0,6.0,92,0.00,,,0.00,VWS V14.01,2013-03-06 12:59:00,
2013-03-06 08:04:00,29.2,27.2,30.11,North,360,3.0,7.0,92,0.00,,,0.00,VWS V14.01,2013-03-06 13:04:00,
2013-03-06 08:09:00,29.3,27.3,30.11,North,355,2.0,7.0,92,0.00,,,0.00,VWS V14.01,2013-03-06 13:09:00,
2013-03-06 08:14:00,29.3,27.3,30.11,NNW,344,0.0,7.0,92,0.00,,,0.00,VWS V14.01,2013-03-06 13:14:00,
2013-03-06 08:19:00,29.4,27.4,30.12,NNW,344,1.0,4.0,92,0.00,,,0.00,VWS V14.01,2013-03-06 13:19:00,
2013-03-06 08:24:00,29.5,27.5,30.12,North,350,2.0,4.0,92,0.00,,,0.00,VWS V14.01,2013-03-06 13:24:00,
2013-03-06 08:29:00,29.5,27.5,30.12,North,350,2.0,6.0,92,0.00,,,0.00,VWS V14.01,2013-03-06 13:29:00,
2013-03-06 08:34:00,29.6,27.6,30.12,North,351,2.0,6.0,92,0.00,,,0.00,VWS V14.01,2013-03-06 13:34:00,
2013-03-06 08:39:00,29.7,27.7,30.12,NW,325,0.0,4.0,92,0.00,,,0.00,VWS V14.01,2013-03-06 13:39:00,
2013-03-06 08:44:00,29.7,27.7,30.13,North,355,2.0,4.0,92,0.00,,,0.00,VWS V14.01,2013-03-06 13:44:00,
2013-03-06 08:49:00,29.8,27.8,30.13,NNW,328,2.0,4.0,92,0.00,,,0.00,VWS V14.01,2013-03-06 13:49:00,
2013-03-06 08:54:00,29.8,27.5,30.13,NNW,340,0.0,3.0,91,0.00,,,0.00,VWS V14.01,2013-03-06 13:54:00,
2013-03-06 08:59:00,29.9,27.6,30.13,North,5,0.0,3.0,91,0.00,,,0.00,VWS V14.01,2013-03-06 13:59:00,
2013-03-06 09:04:00,30.1,27.8,30.13,North,360,0.0,3.0,91,0.00,,,0.00,VWS V14.01,2013-03-06 14:04:00,
2013-03-06 09:09:00,30.2,28.2,30.13,North,360,1.0,3.0,92,0.00,,,0.00,VWS V14.01,2013-03-06 14:09:00,
2013-03-06 09:14:00,30.4,28.1,30.13,NW,325,7.0,7.0,91,0.00,,,0.00,VWS V14.01,2013-03-06 14:14:00,
2013-03-06 09:19:00,30.5,28.2,30.13,NNW,336,1.0,7.0,91,0.00,,,0.00,VWS V14.01,2013-03-06 14:19:00,
2013-03-06 09:24:00,30.7,28.4,30.13,NNW,327,0.0,7.0,91,0.00,,,0.00,VWS V14.01,2013-03-06 14:24:00,
2013-03-06 09:29:00,30.8,28.2,30.13,North,355,0.0,5.0,90,0.00,,,0.00,VWS V14.01,2013-03-06 14:29:00,
2013-03-06 09:34:00,30.9,28.3,30.13,NW,321,0.0,5.0,90,0.00,,,0.00,VWS V14.01,2013-03-06 14:34:00,
2013-03-06 09:39:00,31.1,28.5,30.13,North,5,0.0,5.0,90,0.00,,,0.00,VWS V14.01,2013-03-06 14:39:00,
2013-03-06 09:43:00,31.3,28.4,30.14,North,5,1.0,5.0,89,0.00,,,0.00,VWS V14.01,2013-03-06 14:43:00,
2013-03-06 09:48:00,31.5,28.6,30.14,North,360,1.0,3.0,89,0.00,,,0.00,VWS V14.01,2013-03-06 14:48:00,
2013-03-06 09:53:00,31.7,28.8,30.14,ENE,78,2.0,5.0,89,0.00,,,0.00,VWS V14.01,2013-03-06 14:53:00,
2013-03-06 09:58:00,31.8,28.7,30.14,North,355,1.0,5.0,88,0.00,,,0.00,VWS V14.01,2013-03-06 14:58:00,
2013-03-06 10:03:00,31.9,28.8,30.14,North,360,3.0,5.0,88,0.00,,,0.00,VWS V14.01,2013-03-06 15:03:00,
2013-03-06 10:08:00,32.0,28.9,30.14,NNW,338,1.0,5.0,88,0.00,,,0.00,VWS V14.01,2013-03-06 15:08:00,
2013-03-06 10:13:00,32.3,28.9,30.15,NNW,332,4.0,4.0,87,0.00,,,0.00,VWS V14.01,2013-03-06 15:13:00,
2013-03-06 10:18:00,32.4,28.7,30.15,North,5,3.0,5.0,86,0.00,,,0.00,VWS V14.01,2013-03-06 15:18:00,
2013-03-06 10:23:00,32.6,28.9,30.15,North,9,3.0,5.0,86,0.00,,,0.00,VWS V14.01,2013-03-06 15:23:00,
2013-03-06 10:28:00,32.8,29.1,30.15,NW,323,0.0,4.0,86,0.00,,,0.00,VWS V14.01,2013-03-06 15:28:00,
2013-03-06 10:33:00,33.0,29.0,30.15,NNW,348,3.0,5.0,85,0.00,,,0.00,VWS V14.01,2013-03-06 15:33:00,
2013-03-06 10:38:00,33.3,29.0,30.16,NNW,346,3.0,5.0,84,0.00,,,0.00,VWS V14.01,2013-03-06 15:38:00,
2013-03-06 10:43:00,33.3,28.7,30.16,North,9,3.0,7.0,83,0.00,,,0.00,VWS V14.01,2013-03-06 15:43:00,
2013-03-06 10:48:00,33.6,29.0,30.16,NNE,19,1.0,7.0,83,0.00,,,0.00,VWS V14.01,2013-03-06 15:48:00,
2013-03-06 10:53:00,34.0,29.1,30.16,North,355,4.0,5.0,82,0.00,,,0.00,VWS V14.01,2013-03-06 15:53:00,
2013-03-06 10:58:00,33.8,28.6,30.16,North,355,4.0,5.0,81,0.00,,,0.00,VWS V14.01,2013-03-06 15:58:00,
2013-03-06 11:03:00,33.9,28.7,30.15,North,355,3.0,5.0,81,0.00,,,0.00,VWS V14.01,2013-03-06 16:03:00,
2013-03-06 11:08:00,34.1,28.9,30.16,NW,316,0.0,5.0,81,0.00,,,0.00,VWS V14.01,2013-03-06 16:08:00,
2013-03-06 11:13:00,34.4,29.2,30.17,WNW,286,2.0,5.0,81,0.00,,,0.00,VWS V14.01,2013-03-06 16:13:00,
2013-03-06 11:18:00,34.3,28.8,30.17,North,5,3.0,4.0,80,0.00,,,0.00,VWS V14.01,2013-03-06 16:18:00,
2013-03-06 11:23:00,34.4,28.6,30.17,NW,323,2.0,4.0,79,0.00,,,0.00,VWS V14.01,2013-03-06 16:23:00,
2013-03-06 11:28:00,34.3,28.5,30.18,NNE,22,0.0,7.0,79,0.00,,,0.00,VWS V14.01,2013-03-06 16:28:00,
2013-03-06 11:33:00,34.4,28.6,30.18,NNW,333,2.0,7.0,79,0.00,,,0.00,VWS V14.01,2013-03-06 16:33:00,
2013-03-06 11:38:00,34.6,28.8,30.18,NNE,22,2.0,5.0,79,0.00,,,0.00,VWS V14.01,2013-03-06 16:38:00,
2013-03-06 11:43:00,34.4,28.6,30.18,North,5,3.0,5.0,79,0.01,,,0.01,VWS V14.01,2013-03-06 16:43:00,
2013-03-06 11:48:00,34.6,28.8,30.18,NW,319,2.0,5.0,79,0.01,,,0.01,VWS V14.01,2013-03-06 16:48:00,
2013-03-06 11:53:00,34.7,28.9,30.18,NNW,334,3.0,4.0,79,0.01,,,0.01,VWS V14.01,2013-03-06 16:53:00,
2013-03-06 11:58:00,34.7,28.9,30.18,NNW,343,1.0,4.0,79,0.01,,,0.01,VWS V14.01,2013-03-06 16:58:00,
2013-03-06 12:03:00,34.8,29.0,30.18,NW,319,0.0,4.0,79,0.02,,,0.02,VWS V14.01,2013-03-06 17:03:00,
2013-03-06 12:08:00,34.8,29.0,30.18,NW,315,0.0,5.0,79,0.02,,,0.02,VWS V14.01,2013-03-06 17:08:00,
2013-03-06 12:13:00,35.1,29.3,30.18,East,81,2.0,5.0,79,0.03,,,0.03,VWS V14.01,2013-03-06 17:13:00,
2013-03-06 12:18:00,35.1,29.3,30.18,North,355,1.0,4.0,79,0.03,,,0.03,VWS V14.01,2013-03-06 17:18:00,
2013-03-06 12:23:00,35.1,28.9,30.19,NNE,13,3.0,4.0,78,0.04,,,0.04,VWS V14.01,2013-03-06 17:23:00,
2013-03-06 12:28:00,34.8,28.6,30.19,North,10,4.0,6.0,78,0.04,,,0.04,VWS V14.01,2013-03-06 17:28:00,
2013-03-06 12:33:00,34.8,28.6,30.19,NNW,334,0.0,6.0,78,0.05,,,0.05,VWS V14.01,2013-03-06 17:33:00,
2013-03-06 12:38:00,34.7,28.5,30.19,North,355,1.0,6.0,78,0.05,,,0.05,VWS V14.01,2013-03-06 17:38:00,
2013-03-06 12:43:00,34.7,28.5,30.19,North,355,1.0,5.0,78,0.05,,,0.05,VWS V14.01,2013-03-06 17:43:00,
2013-03-06 12:48:00,35.0,28.9,30.19,NW,312,3.0,4.0,78,0.05,,,0.06,VWS V14.01,2013-03-06 17:48:00,
2013-03-06 12:53:00,35.1,28.9,30.19,NNW,338,3.0,4.0,78,0.05,,,0.06,VWS V14.01,2013-03-06 17:53:00,
2013-03-06 12:58:00,35.2,29.0,30.19,WNW,297,2.0,5.0,78,0.06,,,0.07,VWS V14.01,2013-03-06 17:58:00,
2013-03-06 13:03:00,35.2,29.0,30.19,North,355,1.0,5.0,78,0.05,,,0.07,VWS V14.01,2013-03-06 18:03:00,
2013-03-06 13:08:00,35.1,28.9,30.18,North,355,3.0,6.0,78,0.05,,,0.07,VWS V14.01,2013-03-06 18:08:00,
2013-03-06 13:13:00,35.3,29.1,30.18,NNW,331,1.0,6.0,78,0.04,,,0.07,VWS V14.01,2013-03-06 18:13:00,
2013-03-06 13:18:00,35.6,29.4,30.18,WNW,292,3.0,6.0,78,0.05,,,0.08,VWS V14.01,2013-03-06 18:18:00,
2013-03-06 13:23:00,35.7,29.5,30.18,NW,311,2.0,4.0,78,0.04,,,0.08,VWS V14.01,2013-03-06 18:23:00,
2013-03-06 13:28:00,35.6,29.1,30.18,NNW,346,0.0,5.0,77,0.05,,,0.09,VWS V14.01,2013-03-06 18:28:00,
2013-03-06 13:33:00,35.5,29.6,30.18,NNW,345,0.0,5.0,79,0.04,,,0.09,VWS V14.01,2013-03-06 18:33:00,
2013-03-06 13:38:00,35.3,29.1,30.18,NW,305,2.0,5.0,78,0.04,,,0.09,VWS V14.01,2013-03-06 18:38:00,
2013-03-06 13:43:00,35.3,29.5,30.18,WNW,291,4.0,5.0,79,0.04,,,0.09,VWS V14.01,2013-03-06 18:43:00,
2013-03-06 13:48:00,35.3,29.1,30.18,WNW,290,2.0,5.0,78,0.04,,,0.10,VWS V14.01,2013-03-06 18:48:00,
2013-03-06 13:53:00,35.5,29.6,30.18,West,281,5.0,5.0,79,0.04,,,0.10,VWS V14.01,2013-03-06 18:53:00,
2013-03-06 13:58:00,35.5,29.3,30.18,NW,319,3.0,5.0,78,0.04,,,0.11,VWS V14.01,2013-03-06 18:58:00,
2013-03-06 14:03:00,35.5,29.3,30.18,NE,50,3.0,5.0,78,0.04,,,0.11,VWS V14.01,2013-03-06 19:03:00,
2013-03-06 14:08:00,35.3,29.1,30.18,NNE,17,4.0,4.0,78,0.04,,,0.11,VWS V14.01,2013-03-06 19:08:00,
2013-03-06 14:13:00,35.3,29.5,30.18,North,351,2.0,6.0,79,0.05,,,0.12,VWS V14.01,2013-03-06 19:13:00,
2013-03-06 14:18:00,35.5,29.3,30.18,North,355,3.0,6.0,78,0.04,,,0.12,VWS V14.01,2013-03-06 19:18:00,
2013-03-06 14:23:00,35.6,29.1,30.18,North,11,3.0,6.0,77,0.05,,,0.13,VWS V14.01,2013-03-06 19:23:00,
2013-03-06 14:28:00,35.5,29.3,30.18,NNW,346,0.0,4.0,78,0.04,,,0.13,VWS V14.01,2013-03-06 19:28:00,
2013-03-06 14:33:00,35.6,29.4,30.18,NW,319,1.0,5.0,78,0.04,,,0.13,VWS V14.01,2013-03-06 19:33:00,
2013-03-06 14:38:00,35.6,29.1,30.18,North,5,1.0,5.0,77,0.05,,,0.14,VWS V14.01,2013-03-06 19:38:00,
2013-03-06 14:43:00,35.7,29.2,30.18,NNE,24,3.0,4.0,77,0.05,,,0.14,VWS V14.01,2013-03-06 19:43:00,
2013-03-06 14:48:00,35.8,29.3,30.18,North,350,0.0,5.0,77,0.05,,,0.15,VWS V14.01,2013-03-06 19:48:00,
2013-03-06 14:53:00,35.7,29.2,30.18,North,355,3.0,5.0,77,0.05,,,0.15,VWS V14.01,2013-03-06 19:53:00,
2013-03-06 14:58:00,35.7,29.2,30.18,North,11,2.0,4.0,77,0.04,,,0.15,VWS V14.01,2013-03-06 19:58:00,
2013-03-06 15:03:00,35.6,29.4,30.18,NNW,332,1.0,6.0,78,0.05,,,0.16,VWS V14.01,2013-03-06 20:03:00,
2013-03-06 15:08:00,35.6,29.1,30.18,NNW,327,2.0,6.0,77,0.05,,,0.16,VWS V14.01,2013-03-06 20:08:00,
2013-03-06 15:13:00,35.7,28.9,30.18,WNW,284,0.0,6.0,76,0.05,,,0.17,VWS V14.01,2013-03-06 20:13:00,
2013-03-06 15:18:00,35.7,29.2,30.19,NW,321,1.0,5.0,77,0.05,,,0.17,VWS V14.01,2013-03-06 20:18:00,
2013-03-06 15:23:00,35.7,28.9,30.19,NW,321,2.0,4.0,76,0.04,,,0.17,VWS V14.01,2013-03-06 20:23:00,
2013-03-06 15:28:00,35.6,28.8,30.19,NW,304,2.0,6.0,76,0.05,,,0.18,VWS V14.01,2013-03-06 20:28:00,
2013-03-06 15:33:00,35.6,29.1,30.19,NNW,336,3.0,6.0,77,0.05,,,0.18,VWS V14.01,2013-03-06 20:33:00,
2013-03-06 15:38:00,35.5,29.0,30.20,North,355,1.0,5.0,77,0.04,,,0.18,VWS V14.01,2013-03-06 20:38:00,
2013-03-06 15:43:00,35.5,29.0,30.20,WNW,296,3.0,4.0,77,0.05,,,0.19,VWS V14.01,2013-03-06 20:43:00,
2013-03-06 15:48:00,35.4,28.9,30.20,NW,321,3.0,4.0,77,0.04,,,0.19,VWS V14.01,2013-03-06 20:48:00,
2013-03-06 15:53:00,35.3,28.8,30.20,North,5,0.0,4.0,77,0.04,,,0.19,VWS V14.01,2013-03-06 20:53:00,
2013-03-06 15:58:00,35.4,28.9,30.20,NNW,327,2.0,3.0,77,0.04,,,0.19,VWS V14.01,2013-03-06 20:58:00,
2013-03-06 16:03:00,35.4,28.9,30.20,North,355,1.0,3.0,77,0.03,,,0.19,VWS V14.01,2013-03-06 21:03:00,
2013-03-06 16:08:00,35.5,29.0,30.20,North,355,0.0,3.0,77,0.04,,,0.20,VWS V14.01,2013-03-06 21:08:00,
2013-03-06 16:13:00,35.6,28.8,30.20,North,360,0.0,3.0,76,0.03,,,0.20,VWS V14.01,2013-03-06 21:13:00,
2013-03-06 16:18:00,35.6,28.8,30.20,NNW,335,2.0,5.0,76,0.03,,,0.20,VWS V14.01,2013-03-06 21:18:00,
2013-03-06 16:23:00,35.5,28.7,30.20,NNW,333,4.0,5.0,76,0.04,,,0.21,VWS V14.01,2013-03-06 21:23:00,
2013-03-06 16:28:00,35.5,28.7,30.20,NNW,334,2.0,5.0,76,0.03,,,0.21,VWS V14.01,2013-03-06 21:28:00,
2013-03-06 16:33:00,35.5,28.7,30.20,NW,325,0.0,4.0,76,0.03,,,0.21,VWS V14.01,2013-03-06 21:33:00,
2013-03-06 16:38:00,35.5,28.7,30.21,NNE,14,0.0,4.0,76,0.03,,,0.21,VWS V14.01,2013-03-06 21:38:00,
2013-03-06 16:43:00,35.5,28.7,30.21,WNW,299,0.0,2.0,76,0.02,,,0.21,VWS V14.01,2013-03-06 21:43:00,
2013-03-06 16:48:00,35.4,28.6,30.21,NNW,331,2.0,4.0,76,0.03,,,0.22,VWS V14.01,2013-03-06 21:48:00,
2013-03-06 16:53:00,35.4,28.3,30.21,NW,315,0.0,4.0,75,0.03,,,0.22,VWS V14.01,2013-03-06 21:53:00,
2013-03-06 16:58:00,35.3,28.5,30.21,North,10,2.0,3.0,76,0.03,,,0.22,VWS V14.01,2013-03-06 21:58:00,
2013-03-06 17:03:00,35.3,28.5,30.21,North,349,2.0,4.0,76,0.03,,,0.22,VWS V14.01,2013-03-06 22:03:00,
2013-03-06 17:08:00,35.2,28.4,30.21,NNW,348,1.0,4.0,76,0.03,,,0.23,VWS V14.01,2013-03-06 22:08:00,
2013-03-06 17:13:00,35.2,28.7,30.21,West,279,1.0,4.0,77,0.03,,,0.23,VWS V14.01,2013-03-06 22:13:00,
2013-03-06 17:18:00,35.2,28.7,30.22,West,264,7.0,7.0,77,0.03,,,0.23,VWS V14.01,2013-03-06 22:18:00,
2013-03-06 17:23:00,35.2,28.7,30.22,NW,315,0.0,7.0,77,0.02,,,0.23,VWS V14.01,2013-03-06 22:23:00,
2013-03-06 17:28:00,35.1,28.6,30.22,NW,307,0.0,7.0,77,0.02,,,0.23,VWS V14.01,2013-03-06 22:28:00,
2013-03-06 17:33:00,35.0,28.5,30.22,NW,313,0.0,3.0,77,0.02,,,0.23,VWS V14.01,2013-03-06 22:33:00,
2013-03-06 17:38:00,34.9,28.4,30.22,NNE,27,0.0,3.0,77,0.02,,,0.23,VWS V14.01,2013-03-06 22:38:00,
2013-03-06 17:43:00,34.9,28.8,30.22,NNE,27,0.0,3.0,78,0.02,,,0.23,VWS V14.01,2013-03-06 22:43:00,
2013-03-06 17:48:00,34.8,28.6,30.22,NNE,30,0.0,3.0,78,0.02,,,0.24,VWS V14.01,2013-03-06 22:48:00,
2013-03-06 17:53:00,34.8,28.6,30.23,NNW,340,0.0,4.0,78,0.02,,,0.24,VWS V14.01,2013-03-06 22:53:00,
2013-03-06 17:58:00,34.7,28.9,30.23,NW,326,2.0,4.0,79,0.02,,,0.24,VWS V14.01,2013-03-06 22:58:00,
2013-03-06 18:03:00,34.6,28.8,30.23,NW,326,1.0,4.0,79,0.02,,,0.24,VWS V14.01,2013-03-06 23:03:00,
2013-03-06 18:08:00,34.6,29.1,30.23,NNW,328,1.0,3.0,80,0.01,,,0.24,VWS V14.01,2013-03-06 23:08:00,
2013-03-06 18:13:00,34.4,28.9,30.23,NNW,328,0.0,3.0,80,0.01,,,0.24,VWS V14.01,2013-03-06 23:13:00,
2013-03-06 18:18:00,34.4,29.2,30.23,NNW,333,0.0,3.0,81,0.01,,,0.24,VWS V14.01,2013-03-06 23:18:00,
2013-03-06 18:23:00,34.3,29.1,30.23,NNW,333,0.0,2.0,81,0.01,,,0.24,VWS V14.01,2013-03-06 23:23:00,
2013-03-06 18:28:00,34.2,29.0,30.23,NNW,333,0.0,2.0,81,0.01,,,0.24,VWS V14.01,2013-03-06 23:28:00,
2013-03-06 18:33:00,34.2,29.0,30.23,WNW,301,3.0,4.0,81,0.02,,,0.25,VWS V14.01,2013-03-06 23:33:00,
2013-03-06 18:38:00,34.1,28.9,30.24,NW,310,0.0,4.0,81,0.02,,,0.25,VWS V14.01,2013-03-06 23:38:00,
2013-03-06 18:43:00,34.1,29.2,30.24,NW,326,0.0,4.0,82,0.02,,,0.25,VWS V14.01,2013-03-06 23:43:00,
2013-03-06 18:48:00,34.0,29.1,30.24,NW,323,0.0,2.0,82,0.01,,,0.25,VWS V14.01,2013-03-06 23:48:00,
2013-03-06 18:53:00,34.0,29.1,30.24,NNW,329,0.0,2.0,82,0.01,,,0.25,VWS V14.01,2013-03-06 23:53:00,
2013-03-06 18:58:00,33.9,29.0,30.24,NNW,329,0.0,2.0,82,0.01,,,0.25,VWS V14.01,2013-03-06 23:58:00,
2013-03-06 19:03:00,33.9,29.0,30.24,NNW,329,0.0,2.0,82,0.01,,,0.25,VWS V14.01,2013-03-07 00:03:00,
2013-03-06 19:08:00,33.9,29.3,30.24,NNW,330,0.0,3.0,83,0.01,,,0.25,VWS V14.01,2013-03-07 00:08:00,
2013-03-06 19:13:00,33.8,29.2,30.25,NNW,339,0.0,3.0,83,0.01,,,0.25,VWS V14.01,2013-03-07 00:13:00,
2013-03-06 19:18:00,33.8,29.2,30.25,NNW,339,0.0,3.0,83,0.01,,,0.25,VWS V14.01,2013-03-07 00:18:00,
2013-03-06 19:23:00,33.8,29.5,30.25,NW,321,0.0,2.0,84,0.01,,,0.25,VWS V14.01,2013-03-07 00:23:00,
2013-03-06 19:28:00,33.7,29.4,30.25,NW,322,0.0,2.0,84,0.01,,,0.25,VWS V14.01,2013-03-07 00:28:00,
2013-03-06 19:33:00,33.7,29.4,30.25,NW,322,0.0,2.0,84,0.00,,,0.25,VWS V14.01,2013-03-07 00:33:00,
2013-03-06 19:38:00,33.7,29.4,30.25,NW,322,0.0,1.0,84,0.00,,,0.25,VWS V14.01,2013-03-07 00:38:00,
2013-03-06 19:43:00,33.7,29.7,30.25,NW,322,0.0,1.0,85,0.00,,,0.25,VWS V14.01,2013-03-07 00:43:00,
2013-03-06 19:48:00,33.6,29.6,30.24,NW,322,0.0,0.0,85,0.00,,,0.25,VWS V14.01,2013-03-07 00:48:00,
2013-03-06 19:53:00,33.6,29.6,30.25,NW,322,0.0,1.0,85,0.00,,,0.25,VWS V14.01,2013-03-07 00:53:00,
2013-03-06 19:58:00,33.5,29.5,30.25,NW,322,0.0,2.0,85,0.00,,,0.25,VWS V14.01,2013-03-07 00:58:00,
2013-03-06 20:03:00,33.5,29.8,30.25,NW,322,0.0,2.0,86,0.00,,,0.25,VWS V14.01,2013-03-07 01:03:00,
2013-03-06 20:08:00,33.4,29.7,30.24,NW,322,0.0,0.0,86,0.00,,,0.25,VWS V14.01,2013-03-07 01:08:00,
2013-03-06 20:13:00,33.4,29.7,30.25,NW,322,0.0,0.0,86,0.00,,,0.25,VWS V14.01,2013-03-07 01:13:00,
2013-03-06 20:18:00,33.4,29.7,30.25,NW,322,0.0,1.0,86,0.00,,,0.25,VWS V14.01,2013-03-07 01:18:00,
2013-03-06 20:23:00,33.3,29.6,30.25,NW,322,0.0,1.0,86,0.00,,,0.25,VWS V14.01,2013-03-07 01:23:00,
2013-03-06 20:28:00,33.3,29.9,30.25,WNW,288,1.0,3.0,87,0.00,,,0.25,VWS V14.01,2013-03-07 01:28:00,
2013-03-06 20:33:00,33.2,29.8,30.25,WNW,288,0.0,3.0,87,0.00,,,0.25,VWS V14.01,2013-03-07 01:33:00,
2013-03-06 20:37:00,33.2,29.8,30.25,WNW,288,0.0,3.0,87,0.00,,,0.25,VWS V14.01,2013-03-07 01:37:00,
2013-03-06 20:42:00,33.2,29.8,30.25,WNW,288,0.0,2.0,87,0.00,,,0.25,VWS V14.01,2013-03-07 01:42:00,
2013-03-06 20:47:00,33.2,29.8,30.26,WNW,288,0.0,2.0,87,0.00,,,0.25,VWS V14.01,2013-03-07 01:47:00,
2013-03-06 20:52:00,33.2,29.8,30.26,WNW,288,0.0,2.0,87,0.00,,,0.25,VWS V14.01,2013-03-07 01:52:00,
2013-03-06 20:57:00,33.2,29.8,30.26,WNW,288,0.0,2.0,87,0.00,,,0.25,VWS V14.01,2013-03-07 01:57:00,
2013-03-06 21:02:00,33.2,30.0,30.26,WNW,288,1.0,2.0,88,0.00,,,0.25,VWS V14.01,2013-03-07 02:02:00,
2013-03-06 21:07:00,33.2,30.0,30.26,WNW,288,0.0,2.0,88,0.00,,,0.25,VWS V14.01,2013-03-07 02:07:00,
2013-03-06 21:12:00,33.2,30.0,30.26,WNW,283,0.0,4.0,88,0.00,,,0.25,VWS V14.01,2013-03-07 02:12:00,
2013-03-06 21:17:00,33.1,29.9,30.26,WNW,291,2.0,4.0,88,0.01,,,0.26,VWS V14.01,2013-03-07 02:17:00,
2013-03-06 21:22:00,33.2,30.0,30.26,WNW,284,2.0,4.0,88,0.01,,,0.26,VWS V14.01,2013-03-07 02:22:00,
2013-03-06 21:27:00,33.2,30.0,30.27,WNW,292,1.0,4.0,88,0.01,,,0.26,VWS V14.01,2013-03-07 02:27:00,
2013-03-06 21:32:00,33.2,30.3,30.27,WNW,284,0.0,4.0,89,0.01,,,0.26,VWS V14.01,2013-03-07 02:32:00,
2013-03-06 21:37:00,33.2,30.3,30.27,WNW,292,2.0,4.0,89,0.01,,,0.26,VWS V14.01,2013-03-07 02:37:00,
2013-03-06 21:42:00,33.3,30.4,30.27,WNW,286,1.0,4.0,89,0.01,,,0.26,VWS V14.01,2013-03-07 02:42:00,
2013-03-06 21:47:00,33.3,30.4,30.27,WNW,294,0.0,4.0,89,0.01,,,0.26,VWS V14.01,2013-03-07 02:47:00,
2013-03-06 21:52:00,33.3,30.7,30.27,WNW,288,1.0,4.0,90,0.01,,,0.26,VWS V14.01,2013-03-07 02:52:00,
2013-03-06 21:57:00,33.2,30.6,30.27,West,267,3.0,4.0,90,0.01,,,0.26,VWS V14.01,2013-03-07 02:57:00,
2013-03-06 22:02:00,33.2,30.6,30.26,NW,304,0.0,4.0,90,0.01,,,0.26,VWS V14.01,2013-03-07 03:02:00,
2013-03-06 22:07:00,33.2,30.6,30.26,NW,309,0.0,5.0,90,0.01,,,0.26,VWS V14.01,2013-03-07 03:07:00,
2013-03-06 22:12:00,33.2,30.9,30.26,WNW,288,1.0,5.0,91,0.01,,,0.26,VWS V14.01,2013-03-07 03:12:00,
2013-03-06 22:17:00,33.2,30.9,30.26,WNW,298,1.0,5.0,91,0.01,,,0.26,VWS V14.01,2013-03-07 03:17:00,
2013-03-06 22:22:00,33.2,30.9,30.26,NW,316,1.0,4.0,91,0.00,,,0.26,VWS V14.01,2013-03-07 03:22:00,
2013-03-06 22:27:00,33.1,30.8,30.26,WNW,302,0.0,5.0,91,0.00,,,0.26,VWS V14.01,2013-03-07 03:27:00,
2013-03-06 22:32:00,33.1,30.8,30.26,West,262,1.0,5.0,91,0.00,,,0.26,VWS V14.01,2013-03-07 03:32:00,
2013-03-06 22:37:00,33.1,30.8,30.26,NW,312,3.0,5.0,91,0.00,,,0.26,VWS V14.01,2013-03-07 03:37:00,
2013-03-06 22:42:00,33.0,30.7,30.26,NW,309,0.0,5.0,91,0.00,,,0.26,VWS V14.01,2013-03-07 03:42:00,
2013-03-06 22:47:00,33.0,30.7,30.26,NW,313,0.0,3.0,91,0.00,,,0.26,VWS V14.01,2013-03-07 03:47:00,
2013-03-06 22:52:00,32.9,30.8,30.26,WNW,297,1.0,2.0,92,0.00,,,0.26,VWS V14.01,2013-03-07 03:52:00,
2013-03-06 22:57:00,32.9,30.8,30.27,NNW,331,1.0,2.0,92,0.00,,,0.26,VWS V14.01,2013-03-07 03:57:00,
2013-03-06 23:02:00,32.9,30.8,30.27,NNW,331,0.0,2.0,92,0.00,,,0.26,VWS V14.01,2013-03-07 04:02:00,
2013-03-06 23:07:00,32.9,30.8,30.27,NNW,331,1.0,2.0,92,0.00,,,0.26,VWS V14.01,2013-03-07 04:07:00,
2013-03-06 23:12:00,32.9,30.8,30.27,NW,317,0.0,3.0,92,0.00,,,0.26,VWS V14.01,2013-03-07 04:12:00,
2013-03-06 23:17:00,32.9,30.8,30.27,WNW,302,1.0,4.0,92,0.00,,,0.26,VWS V14.01,2013-03-07 04:17:00,
2013-03-06 23:22:00,32.9,31.1,30.27,NW,306,1.0,4.0,93,0.00,,,0.26,VWS V14.01,2013-03-07 04:22:00,
2013-03-06 23:27:00,32.9,31.1,30.27,NW,306,0.0,4.0,93,0.00,,,0.26,VWS V14.01,2013-03-07 04:27:00,
2013-03-06 23:32:00,32.9,31.1,30.27,NW,306,0.0,2.0,93,0.00,,,0.26,VWS V14.01,2013-03-07 04:32:00,
2013-03-06 23:37:00,32.8,31.0,30.27,NW,308,2.0,5.0,93,0.00,,,0.26,VWS V14.01,2013-03-07 04:37:00,
2013-03-06 23:42:00,32.8,31.0,30.27,WNW,296,0.0,5.0,93,0.00,,,0.26,VWS V14.01,2013-03-07 04:42:00,
2013-03-06 23:47:00,32.8,31.0,30.27,WNW,296,0.0,5.0,93,0.00,,,0.26,VWS V14.01,2013-03-07 04:47:00,
2013-03-06 23:52:00,32.8,31.0,30.26,NNW,333,0.0,4.0,93,0.00,,,0.26,VWS V14.01,2013-03-07 04:52:00,
2013-03-06 23:57:00,32.8,31.0,30.26,NW,311,0.0,4.0,93,0.00,,,0.26,VWS V14.01,2013-03-07 04:57:00,